Weather History for KTAD - January, 2013

Change the Weather History Date:

Tuesday, January 22, 2013

  Actual Average Record
Temperature  
Mean Temperature 47 °F 32 °F  
Max Temperature 68 °F 47 °F - ()
Min Temperature 25 °F 18 °F - ()
Degree Days  
Heating Degree Days 18 32  
Month to date heating degree days 786 724  
Since 1 July heating degree days 2835 2992  
Cooling Degree Days 0 0  
Month to date cooling degree days 0 0  
Year to date cooling degree days 0 0  
Moisture  
Dew Point -6 °F    
Average Humidity 23    
Maximum Humidity 42    
Minimum Humidity 3    
Precipitation  
Precipitation 0.00 in 0.01 in - ()
Month to date precipitation 0.03 0.28  
Year to date precipitation 0.03 0.28  
Sea Level Pressure  
Sea Level Pressure 30.10 in    
Wind  
Wind Speed 9 mph (West)    
Max Wind Speed 20 mph    
Max Gust Speed 23 mph    
Visibility 10 miles    
Events      
T = Trace of Precipitation, MM = Missing Value Source: NWS Daily Summary

Daily Weather History Graph

Daily Weather History Graph

Search for Another Location

Airport or City:

Trip Planner

Search our weather history database for the weather conditions in past years. The results will help you decide how hot, cold, wet, or windy it might be!

Date:

Astronomy

Jan. 22, 2013 Rise Set
Actual Time 7:07 AM MST 5:11 PM MST
Civil Twilight 6:39 AM MST 5:39 PM MST
Nautical Twilight 6:07 AM MST 6:11 PM MST
Astronomical Twilight 5:36 AM MST 6:42 PM MST
Moon 1:37 PM MST (1/22) 3:29 AM MST (1/22)
Length of Visible Light 11h 00m
Length of Day
10h 04m
Waxing Gibbous, 83% of the Moon is Illuminated
Jan 22
Waxing Gibbous
Jan 26
Full
Feb 3
Last Quarter
Feb 10
New
Feb 17
First Quarter

Hourly Weather History & Observations

Time (MST) Temp. Windchill Dew Point Humidity Pressure Visibility Wind Dir Wind Speed Gust Speed Precip Events Conditions
12:54 AM 26.1 °F 16.2 °F 7.0 °F 44% 30.11 in 10.0 mi West 10.4 mph - N/A   Clear
1:54 AM 32.0 °F 23.0 °F 7.0 °F 35% 30.08 in 10.0 mi West 11.5 mph - N/A   Clear
2:54 AM 30.0 °F 21.1 °F 5.0 °F 35% 30.09 in 10.0 mi West 10.4 mph - N/A   Clear
3:54 AM 33.1 °F 22.6 °F 3.0 °F 28% 30.06 in 10.0 mi WSW 16.1 mph - N/A   Clear
4:54 AM 32.0 °F 22.1 °F 1.0 °F 27% 30.07 in 10.0 mi West 13.8 mph - N/A   Clear
5:54 AM 34.0 °F 24.6 °F -2.0 °F 22% 30.08 in 10.0 mi West 13.8 mph - N/A   Clear
6:54 AM 33.1 °F 23.9 °F -4.0 °F 20% 30.13 in 10.0 mi West 12.7 mph - N/A   Clear
7:54 AM 28.0 °F 17.5 °F -0.9 °F 29% 30.17 in 10.0 mi WNW 12.7 mph - N/A   Clear
8:54 AM 41.0 °F 34.3 °F -2.9 °F 16% 30.12 in 10.0 mi WNW 11.5 mph - N/A   Clear
9:54 AM 48.9 °F - -0.0 °F 13% 30.14 in 10.0 mi West 8.1 mph - N/A   Clear
10:54 AM 59.0 °F - -0.9 °F 9% 30.11 in 10.0 mi Calm Calm - N/A   Clear
11:54 AM 64.9 °F - -9.0 °F 5% 30.06 in 10.0 mi Calm Calm - N/A   Clear
12:54 PM 66.0 °F - -20.9 °F 4% 30.03 in 10.0 mi Variable 4.6 mph - N/A   Clear
1:54 PM 66.9 °F - -20.0 °F 4% 29.98 in 10.0 mi West 4.6 mph - N/A   Clear
2:54 PM 66.9 °F - -18.0 °F 4% 30.00 in 10.0 mi Calm Calm - N/A   Clear
3:54 PM 66.9 °F - -17.0 °F 4% 30.01 in 10.0 mi NW 5.8 mph - N/A   Clear
4:54 PM 59.0 °F - -14.1 °F 5% 30.04 in 10.0 mi NW 9.2 mph - N/A   Clear
5:54 PM 43.0 °F 38.2 °F -13.0 °F 9% 30.11 in 10.0 mi West 8.1 mph - N/A   Clear
6:54 PM 44.1 °F 42.5 °F -13.0 °F 9% 30.12 in 10.0 mi NNW 3.5 mph - N/A   Clear
7:54 PM 37.9 °F 30.9 °F -8.0 °F 14% 30.18 in 10.0 mi West 10.4 mph - N/A   Clear
8:54 PM 35.1 °F 25.9 °F -6.0 °F 17% 30.17 in 10.0 mi West 13.8 mph - N/A   Clear
9:54 PM 34.0 °F 24.6 °F -7.1 °F 17% 30.17 in 10.0 mi West 13.8 mph - N/A   Clear
10:54 PM 33.1 °F 24.4 °F -8.0 °F 17% 30.14 in 10.0 mi West 11.5 mph - N/A   Clear
11:54 PM 30.0 °F 20.5 °F -8.0 °F 19% 30.14 in 10.0 mi West 11.5 mph - N/A   Clear